User: anonymous   Login
Location: Unspecified
(0.0000°N, 0.0000°E)
Time: 16:33:40
(UTC+00:00)
Language:

AO-85 - Orbit

View from above orbital plane
View from above orbital plane
View from above satellite
View from above satellite

Ground track
Ground track

The orbit data is extracted from the following two-line orbital elements,

1 40967U 15058D   17201.24635054  .00000870  00000-0  11930-3 0 00268
2 40967 064.7756 118.6013 0172867 066.0875 295.8258 14.75453525004673
Epoch (UTC): 20 July 2017 05:54:44
Eccentricity: 0.0172867
inclination: 64.7756°
perigee height: 522 km
apogee height: 765 km
right ascension of ascending node: 118.6013°
argument of perigee: 66.0875°
revolutions per day: 14.75453525
mean anomaly at epoch: 295.8258°
orbit number at epoch: 467

The dashed part of the orbit path shows where the satellite is in the earth's shadow,  

DLR